Time,TemperatureF,DewpointF,PressureIn,WindDirection,WindDirectionDegrees,WindSpeedMPH,WindSpeedGustMPH,Humidity,HourlyPrecipIn,Conditions,Clouds,dailyrainin,SoftwareType,DateUTC
2013-06-14 00:13:00,50.7,50.0,29.70,WSW,240,11.0,15.0,97,0.00,,,0.00,weatherlink.com 1.10,2013-06-14 04:13:00,
2013-06-14 00:28:00,50.6,50.0,29.70,WSW,242,4.0,13.0,96,0.00,,,0.00,weatherlink.com 1.10,2013-06-14 04:28:00,
2013-06-14 00:43:00,50.5,49.0,29.70,SSW,208,3.0,21.0,94,0.00,,,0.00,weatherlink.com 1.10,2013-06-14 04:43:00,
2013-06-14 00:58:00,50.3,48.0,29.70,WSW,245,7.0,18.0,93,0.00,,,0.00,weatherlink.com 1.10,2013-06-14 04:58:00,
2013-06-14 01:13:00,50.2,49.0,29.70,WSW,257,7.0,19.0,94,0.00,,,0.00,weatherlink.com 1.10,2013-06-14 05:13:00,
2013-06-14 01:28:00,50.1,48.0,29.71,SSE,166,15.0,15.0,93,0.00,,,0.00,weatherlink.com 1.10,2013-06-14 05:28:00,
2013-06-14 01:43:00,50.0,48.0,29.71,North,351,7.0,16.0,94,0.00,,,0.00,weatherlink.com 1.10,2013-06-14 05:43:00,
2013-06-14 01:58:00,49.9,48.0,29.71,SSW,212,5.0,15.0,94,0.00,,,0.00,weatherlink.com 1.10,2013-06-14 05:58:00,
2013-06-14 02:13:00,50.0,49.0,29.70,WNW,284,2.0,16.0,95,0.00,,,0.00,weatherlink.com 1.10,2013-06-14 06:13:00,
2013-06-14 02:28:00,50.1,49.0,29.70,SW,224,2.0,15.0,96,0.00,,,0.00,weatherlink.com 1.10,2013-06-14 06:28:00,
2013-06-14 02:43:00,50.1,49.0,29.70,SSW,198,8.0,17.0,96,0.00,,,0.00,weatherlink.com 1.10,2013-06-14 06:43:00,
2013-06-14 02:58:00,50.2,49.0,29.70,SW,233,4.0,16.0,96,0.00,,,0.00,weatherlink.com 1.10,2013-06-14 06:58:00,
2013-06-14 03:13:00,50.2,49.0,29.70,WSW,242,12.0,17.0,96,0.00,,,0.00,weatherlink.com 1.10,2013-06-14 07:13:00,
2013-06-14 03:28:00,50.1,49.0,29.69,WNW,301,3.0,22.0,97,0.00,,,0.00,weatherlink.com 1.10,2013-06-14 07:28:00,
2013-06-14 03:43:00,49.9,49.0,29.69,WSW,257,4.0,22.0,97,0.00,,,0.00,weatherlink.com 1.10,2013-06-14 07:43:00,
2013-06-14 03:58:00,49.9,49.0,29.69,WNW,296,10.0,20.0,96,0.00,,,0.00,weatherlink.com 1.10,2013-06-14 07:58:00,
2013-06-14 04:13:00,49.8,49.0,29.69,WNW,299,6.0,17.0,97,0.00,,,0.00,weatherlink.com 1.10,2013-06-14 08:13:00,
2013-06-14 04:28:00,49.6,49.0,29.69,NW,308,8.0,18.0,97,0.00,,,0.00,weatherlink.com 1.10,2013-06-14 08:28:00,
2013-06-14 04:43:00,49.7,49.0,29.70,SW,230,11.0,16.0,97,0.00,,,0.00,weatherlink.com 1.10,2013-06-14 08:43:00,
2013-06-14 04:58:00,49.6,49.0,29.70,WSW,250,10.0,17.0,97,0.00,,,0.00,weatherlink.com 1.10,2013-06-14 08:58:00,
2013-06-14 05:13:00,49.6,49.0,29.70,West,278,4.0,19.0,97,0.00,,,0.00,weatherlink.com 1.10,2013-06-14 09:13:00,
2013-06-14 05:29:00,49.5,49.0,29.71,NNW,346,2.0,17.0,97,0.00,,,0.00,weatherlink.com 1.10,2013-06-14 09:29:00,
2013-06-14 05:44:00,49.5,49.0,29.72,SE,142,10.0,15.0,98,0.00,,,0.00,weatherlink.com 1.10,2013-06-14 09:44:00,
2013-06-14 05:59:00,49.4,49.0,29.72,WNW,292,12.0,12.0,98,0.00,,,0.00,weatherlink.com 1.10,2013-06-14 09:59:00,
2013-06-14 06:14:00,49.2,49.0,29.73,WNW,288,7.0,16.0,98,0.00,,,0.00,weatherlink.com 1.10,2013-06-14 10:14:00,
2013-06-14 06:29:00,49.0,49.0,29.73,WNW,296,7.0,16.0,98,0.00,,,0.00,weatherlink.com 1.10,2013-06-14 10:29:00,
2013-06-14 06:44:00,49.1,49.0,29.75,NW,315,5.0,17.0,98,0.00,,,0.00,weatherlink.com 1.10,2013-06-14 10:44:00,
2013-06-14 06:59:00,49.0,49.0,29.76,North,5,5.0,15.0,98,0.00,,,0.00,weatherlink.com 1.10,2013-06-14 10:59:00,
2013-06-14 07:14:00,49.0,49.0,29.77,WSW,251,5.0,16.0,98,0.00,,,0.00,weatherlink.com 1.10,2013-06-14 11:14:00,
2013-06-14 07:29:00,49.0,49.0,29.77,WNW,299,4.0,11.0,98,0.00,,,0.00,weatherlink.com 1.10,2013-06-14 11:29:00,
2013-06-14 07:44:00,49.0,49.0,29.78,SSW,202,1.0,12.0,98,0.00,,,0.00,weatherlink.com 1.10,2013-06-14 11:44:00,
2013-06-14 07:59:00,49.1,49.0,29.79,West,262,4.0,12.0,98,0.00,,,0.00,weatherlink.com 1.10,2013-06-14 11:59:00,
2013-06-14 08:14:00,49.1,49.0,29.80,WSW,246,6.0,11.0,98,0.00,,,0.00,weatherlink.com 1.10,2013-06-14 12:14:00,
2013-06-14 08:29:00,49.3,49.0,29.80,SSW,197,2.0,13.0,98,0.00,,,0.00,weatherlink.com 1.10,2013-06-14 12:29:00,
2013-06-14 08:44:00,49.5,49.0,29.80,NW,316,6.0,16.0,98,0.00,,,0.00,weatherlink.com 1.10,2013-06-14 12:44:00,
2013-06-14 08:59:00,49.7,49.0,29.81,West,261,2.0,17.0,98,0.00,,,0.00,weatherlink.com 1.10,2013-06-14 12:59:00,
2013-06-14 09:14:00,50.1,49.0,29.82,WNW,296,5.0,13.0,97,0.00,,,0.00,weatherlink.com 1.10,2013-06-14 13:14:00,
2013-06-14 09:29:00,50.0,49.0,29.83,WNW,298,6.0,16.0,97,0.00,,,0.00,weatherlink.com 1.10,2013-06-14 13:29:00,
2013-06-14 09:44:00,50.2,49.0,29.84,NW,314,9.0,18.0,96,0.00,,,0.00,weatherlink.com 1.10,2013-06-14 13:44:00,
2013-06-14 09:59:00,50.4,49.0,29.84,WNW,282,4.0,16.0,96,0.00,,,0.00,weatherlink.com 1.10,2013-06-14 13:59:00,
2013-06-14 10:14:00,50.8,49.0,29.84,West,265,6.0,18.0,94,0.00,,,0.00,weatherlink.com 1.10,2013-06-14 14:14:00,
2013-06-14 10:29:00,51.2,49.0,29.84,WSW,244,7.0,19.0,93,0.00,,,0.00,weatherlink.com 1.10,2013-06-14 14:29:00,
2013-06-14 10:44:00,51.9,49.0,29.84,NW,305,10.0,14.0,91,0.00,,,0.00,weatherlink.com 1.10,2013-06-14 14:44:00,
2013-06-14 10:59:00,52.5,50.0,29.85,WSW,257,10.0,14.0,90,0.00,,,0.00,weatherlink.com 1.10,2013-06-14 14:59:00,
2013-06-14 11:14:00,53.2,49.0,29.86,NNW,335,11.0,25.0,86,0.00,,,0.00,weatherlink.com 1.10,2013-06-14 15:14:00,
2013-06-14 11:29:00,54.2,50.0,29.86,NW,325,5.0,15.0,86,0.00,,,0.00,weatherlink.com 1.10,2013-06-14 15:29:00,
2013-06-14 11:44:00,54.3,50.0,29.88,WNW,298,4.0,16.0,85,0.00,,,0.00,weatherlink.com 1.10,2013-06-14 15:44:00,
2013-06-14 11:59:00,54.6,49.0,29.88,West,281,9.0,18.0,82,0.00,,,0.00,weatherlink.com 1.10,2013-06-14 15:59:00,
2013-06-14 12:14:00,55.2,50.0,29.88,WSW,244,6.0,14.0,81,0.00,,,0.00,weatherlink.com 1.10,2013-06-14 16:14:00,
2013-06-14 12:30:00,55.6,50.0,29.89,NW,323,7.0,13.0,81,0.00,,,0.00,weatherlink.com 1.10,2013-06-14 16:30:00,
2013-06-14 12:45:00,55.8,49.0,29.90,SW,223,6.0,16.0,79,0.00,,,0.00,weatherlink.com 1.10,2013-06-14 16:45:00,
2013-06-14 13:00:00,55.7,50.0,29.91,SW,231,4.0,15.0,80,0.00,,,0.00,weatherlink.com 1.10,2013-06-14 17:00:00,
2013-06-14 13:15:00,56.0,49.0,29.92,SW,220,3.0,14.0,78,0.00,,,0.00,weatherlink.com 1.10,2013-06-14 17:15:00,
2013-06-14 13:30:00,55.7,50.0,29.92,NNW,332,4.0,13.0,80,0.00,,,0.00,weatherlink.com 1.10,2013-06-14 17:30:00,
2013-06-14 13:45:00,55.7,48.0,29.93,WSW,243,7.0,15.0,76,0.00,,,0.00,weatherlink.com 1.10,2013-06-14 17:45:00,
2013-06-14 14:00:00,56.3,50.0,29.94,West,265,6.0,11.0,78,0.00,,,0.00,weatherlink.com 1.10,2013-06-14 18:00:00,
2013-06-14 14:15:00,55.8,49.0,29.94,WNW,298,6.0,13.0,78,0.00,,,0.00,weatherlink.com 1.10,2013-06-14 18:15:00,
2013-06-14 14:30:00,58.0,50.0,29.93,WSW,251,8.0,14.0,74,0.00,,,0.00,weatherlink.com 1.10,2013-06-14 18:30:00,
2013-06-14 14:45:00,57.4,50.0,29.93,NW,304,6.0,11.0,75,0.00,,,0.00,weatherlink.com 1.10,2013-06-14 18:45:00,
2013-06-14 15:00:00,57.8,48.0,29.94,SSW,210,6.0,12.0,71,0.00,,,0.00,weatherlink.com 1.10,2013-06-14 19:00:00,
2013-06-14 15:15:00,57.6,49.0,29.94,WNW,286,5.0,12.0,74,0.00,,,0.00,weatherlink.com 1.10,2013-06-14 19:15:00,
2013-06-14 15:30:00,57.5,49.0,29.95,WSW,238,4.0,11.0,74,0.00,,,0.00,weatherlink.com 1.10,2013-06-14 19:30:00,
2013-06-14 15:45:00,57.2,49.0,29.94,SSW,210,1.0,18.0,75,0.00,,,0.00,weatherlink.com 1.10,2013-06-14 19:45:00,
2013-06-14 16:00:00,57.1,50.0,29.94,West,274,2.0,14.0,77,0.00,,,0.00,weatherlink.com 1.10,2013-06-14 20:00:00,
2013-06-14 16:15:00,58.5,50.0,29.94,WNW,282,3.0,11.0,73,0.00,,,0.00,weatherlink.com 1.10,2013-06-14 20:15:00,
2013-06-14 16:30:00,57.5,50.0,29.95,WNW,298,8.0,13.0,75,0.00,,,0.00,weatherlink.com 1.10,2013-06-14 20:30:00,
2013-06-14 16:45:00,58.4,49.0,29.94,SW,219,6.0,13.0,71,0.00,,,0.00,weatherlink.com 1.10,2013-06-14 20:45:00,
2013-06-14 17:00:00,58.1,49.0,29.94,WNW,293,5.0,7.0,73,0.00,,,0.00,weatherlink.com 1.10,2013-06-14 21:00:00,
2013-06-14 17:15:00,58.3,50.0,29.95,SSW,207,4.0,13.0,74,0.00,,,0.00,weatherlink.com 1.10,2013-06-14 21:15:00,
2013-06-14 17:30:00,57.9,50.0,29.94,West,262,6.0,9.0,75,0.00,,,0.00,weatherlink.com 1.10,2013-06-14 21:30:00,
2013-06-14 17:45:00,58.7,50.0,29.94,SW,229,7.0,9.0,72,0.00,,,0.00,weatherlink.com 1.10,2013-06-14 21:45:00,
2013-06-14 18:00:00,58.6,49.0,29.94,WSW,258,5.0,9.0,70,0.00,,,0.00,weatherlink.com 1.10,2013-06-14 22:00:00,
2013-06-14 18:15:00,57.8,49.0,29.94,West,278,1.0,10.0,73,0.00,,,0.00,weatherlink.com 1.10,2013-06-14 22:15:00,
2013-06-14 18:30:00,58.7,49.0,29.94,NNW,343,3.0,15.0,71,0.00,,,0.00,weatherlink.com 1.10,2013-06-14 22:30:00,
2013-06-14 18:45:00,58.4,49.0,29.94,West,276,6.0,10.0,72,0.00,,,0.00,weatherlink.com 1.10,2013-06-14 22:45:00,
2013-06-14 19:00:00,58.2,49.0,29.94,WNW,292,7.0,12.0,72,0.00,,,0.00,weatherlink.com 1.10,2013-06-14 23:00:00,
2013-06-14 19:15:00,57.5,49.0,29.95,WSW,254,4.0,13.0,74,0.00,,,0.00,weatherlink.com 1.10,2013-06-14 23:15:00,
2013-06-14 19:30:00,56.8,50.0,29.95,SSW,209,4.0,10.0,77,0.00,,,0.00,weatherlink.com 1.10,2013-06-14 23:30:00,
2013-06-14 19:45:00,56.2,49.0,29.95,South,191,8.0,12.0,77,0.00,,,0.00,weatherlink.com 1.10,2013-06-14 23:45:00,
2013-06-14 20:00:00,55.9,49.0,29.95,SW,225,4.0,11.0,77,0.00,,,0.00,weatherlink.com 1.10,2013-06-15 00:00:00,
2013-06-14 20:15:00,55.6,49.0,29.95,SE,129,1.0,11.0,77,0.00,,,0.00,weatherlink.com 1.10,2013-06-15 00:15:00,
2013-06-14 20:30:00,55.1,49.0,29.95,WNW,285,3.0,8.0,79,0.00,,,0.00,weatherlink.com 1.10,2013-06-15 00:30:00,
2013-06-14 20:45:00,54.8,49.0,29.96,SW,217,3.0,11.0,80,0.00,,,0.00,weatherlink.com 1.10,2013-06-15 00:45:00,
2013-06-14 21:00:00,54.3,49.0,29.96,SW,230,4.0,7.0,81,0.00,,,0.00,weatherlink.com 1.10,2013-06-15 01:00:00,
2013-06-14 21:15:00,54.2,49.0,29.97,South,177,0.0,6.0,83,0.00,,,0.00,weatherlink.com 1.10,2013-06-15 01:15:00,
2013-06-14 21:30:00,54.0,49.0,29.98,West,261,4.0,5.0,83,0.00,,,0.00,weatherlink.com 1.10,2013-06-15 01:30:00,
2013-06-14 21:45:00,53.6,49.0,29.98,WNW,292,0.0,7.0,84,0.00,,,0.00,weatherlink.com 1.10,2013-06-15 01:45:00,
2013-06-14 22:00:00,53.5,49.0,29.98,WSW,240,3.0,7.0,84,0.00,,,0.00,weatherlink.com 1.10,2013-06-15 02:00:00,
2013-06-14 22:15:00,53.3,48.0,29.99,WSW,240,1.0,6.0,83,0.00,,,0.00,weatherlink.com 1.10,2013-06-15 02:15:00,
2013-06-14 22:30:00,53.1,48.0,30.00,WSW,249,3.0,6.0,82,0.00,,,0.00,weatherlink.com 1.10,2013-06-15 02:30:00,
2013-06-14 22:45:00,52.6,48.0,30.01,WSW,246,1.0,6.0,84,0.00,,,0.00,weatherlink.com 1.10,2013-06-15 02:45:00,
2013-06-14 23:00:00,52.7,48.0,30.02,West,259,2.0,5.0,84,0.00,,,0.00,weatherlink.com 1.10,2013-06-15 03:00:00,
2013-06-14 23:15:00,53.2,48.0,30.02,SSW,209,7.0,8.0,83,0.00,,,0.00,weatherlink.com 1.10,2013-06-15 03:15:00,
2013-06-14 23:30:00,53.1,48.0,30.02,WNW,294,3.0,8.0,84,0.00,,,0.00,weatherlink.com 1.10,2013-06-15 03:30:00,
2013-06-14 23:45:00,53.0,49.0,30.02,SSW,200,0.0,9.0,85,0.00,,,0.00,weatherlink.com 1.10,2013-06-15 03:45:00,